User: anonymous   Login
Location: Bottom School (historical)
(37.9078°N, 89.3593°W)
Time: 12:27:48
(UTC+00:00)
Language:

NANOSAT 1B - Orbit

View from above orbital plane
View from above orbital plane
View from above satellite
View from above satellite

Ground track
Ground track

The orbit data is extracted from the following two-line orbital elements,

1 35685U 09041E   23342.19170263  .00001463  00000-0  16633-3 0  9990
2 35685  98.1106  62.1083 0054831 309.5215  50.1160 14.86856689777162
Epoch (UTC): 08 December 2023 04:36:03
Eccentricity: 0.0054831
inclination: 98.1106°
perigee height: 569 km
apogee height: 646 km
right ascension of ascending node: 62.1083°
argument of perigee: 309.5215°
revolutions per day: 14.86856689
mean anomaly at epoch: 50.1160°
orbit number at epoch: 77716

The dashed part of the orbit path shows where the satellite is in the earth's shadow,  

DLR